When you browse on this site, cookies collect data to enhance your experience and personalize the content and advertising you see.
Visit our Privacy Policy to learn more. By continuing to use the site, you agree to this use of cookies and data.
  • Em Portugal
  • Lista de países
  • Para 7 dias
  • Temperatura da água
  • Mapas de satélite
  • Mapa do tempo
  • Widgets de tempo
  • user-avatar
    Iniciar Sessão

    Previsão horária em Koziatyn

    Hoje, 25 Março, Segunda-feira

    Tempo Temperatura Precipitação Vento Pressão Humidade
    00:00 +4°C° 0 mm 2 m/s 736 mmHg 68%
    01:00 +4°C° 0 mm 1 m/s 736 mmHg 69%
    02:00 +4°C° 0 mm 1 m/s 736 mmHg 69%
    03:00 +4°C° 0 mm 1 m/s 735 mmHg 69%
    04:00 +3°C° 0 mm 0 m/s 735 mmHg 69%
    05:00 +2°C° 0 mm 0 m/s 734 mmHg 70%
    06:00 +3°C° 0 mm 0 m/s 734 mmHg 67%
    07:00 +5°C° 0 mm 1 m/s 734 mmHg 65%
    08:00 +6°C° 0 mm 1 m/s 734 mmHg 62%
    09:00 +6°C° 0.1 mm 1 m/s 733 mmHg 61%
    10:00 +7°C° 0.1 mm 1 m/s 733 mmHg 59%
    11:00 +7°C° 0.1 mm 1 m/s 733 mmHg 58%
    12:00 +7°C° 0.6 mm 1 m/s 732 mmHg 60%
    13:00 +7°C° 0.6 mm 1 m/s 732 mmHg 63%
    14:00 +6°C° 0.6 mm 1 m/s 732 mmHg 66%
    15:00 +6°C° 0.1 mm 1 m/s 731 mmHg 67%
    16:00 +6°C° 0.1 mm 1 m/s 731 mmHg 68%
    17:00 +6°C° 0.1 mm 1 m/s 731 mmHg 69%
    18:00 +6°C° 0 mm 1 m/s 731 mmHg 73%
    19:00 +5°C° 0 mm 1 m/s 731 mmHg 77%
    20:00 +4°C° 0 mm 1 m/s 731 mmHg 81%
    21:00 +4°C° 0 mm 1 m/s 731 mmHg 82%
    22:00 +4°C° 0 mm 1 m/s 731 mmHg 83%
    23:00 +3°C° 0 mm 2 m/s 731 mmHg 84%

    Amanhã, 26 Março, Terça-feira

    Tempo Temperatura Precipitação Vento Pressão Humidade
    00:00 +2°C° 0 mm 2 m/s 731 mmHg 85%
    01:00 +2°C° 0 mm 2 m/s 731 mmHg 85%
    02:00 +2°C° 0 mm 2 m/s 731 mmHg 86%
    03:00 +2°C° 0.1 mm 2 m/s 732 mmHg 86%
    04:00 +2°C° 0.1 mm 3 m/s 732 mmHg 86%
    05:00 +2°C° 0.1 mm 3 m/s 732 mmHg 87%
    06:00 +2°C° 0.4 mm 3 m/s 732 mmHg 83%
    07:00 +2°C° 0.4 mm 3 m/s 733 mmHg 80%
    08:00 +3°C° 0.4 mm 3 m/s 733 mmHg 76%
    09:00 +4°C° 0 mm 4 m/s 734 mmHg 68%
    10:00 +5°C° 0 mm 5 m/s 734 mmHg 60%
    11:00 +5°C° 0 mm 6 m/s 735 mmHg 52%
    12:00 +5°C° 0.1 mm 7 m/s 735 mmHg 51%
    13:00 +5°C° 0.1 mm 7 m/s 735 mmHg 51%
    14:00 +5°C° 0.1 mm 8 m/s 735 mmHg 50%
    15:00 +5°C° 0 mm 7 m/s 735 mmHg 52%
    16:00 +4°C° 0 mm 7 m/s 735 mmHg 53%
    17:00 +3°C° 0 mm 6 m/s 735 mmHg 55%
    18:00 +3°C° 0 mm 5 m/s 735 mmHg 58%
    19:00 +2°C° 0 mm 5 m/s 735 mmHg 62%
    20:00 +1°C° 0 mm 4 m/s 735 mmHg 65%
    21:00 +1°C° 0 mm 5 m/s 735 mmHg 67%
    22:00 +1°C° 0 mm 6 m/s 734 mmHg 68%
    23:00 -1°C° 0 mm 7 m/s 734 mmHg 69%

    Depois de amanhã, 27 Março, Quarta-feira

    Tempo Temperatura Precipitação Vento Pressão Humidade
    00:00 -1°C° 0.1 mm 7 m/s 734 mmHg 70%
    01:00 0°C° 0.1 mm 8 m/s 733 mmHg 71%
    02:00 0°C° 0.1 mm 9 m/s 733 mmHg 72%
    03:00 -3°C° 0.1 mm 9 m/s 734 mmHg 72%
    04:00 -4°C° 0.1 mm 8 m/s 734 mmHg 72%
    05:00 -5°C° 0.1 mm 8 m/s 735 mmHg 72%
    06:00 -5°C° 0 mm 8 m/s 736 mmHg 73%
    07:00 -5°C° 0 mm 8 m/s 737 mmHg 74%
    08:00 -5°C° 0 mm 8 m/s 738 mmHg 76%
    09:00 -2°C° 0 mm 7 m/s 739 mmHg 71%
    10:00 -1°C° 0 mm 7 m/s 740 mmHg 66%
    11:00 +1°C° 0 mm 6 m/s 741 mmHg 61%
    12:00 +1°C° 0.2 mm 6 m/s 741 mmHg 57%
    13:00 +2°C° 0.2 mm 6 m/s 741 mmHg 54%
    14:00 +2°C° 0.2 mm 6 m/s 742 mmHg 51%
    15:00 +2°C° 0.1 mm 6 m/s 742 mmHg 49%
    16:00 +2°C° 0.1 mm 6 m/s 742 mmHg 48%
    17:00 +2°C° 0.1 mm 6 m/s 742 mmHg 46%
    18:00 +1°C° 0 mm 5 m/s 743 mmHg 51%
    19:00 0°C° 0 mm 4 m/s 744 mmHg 56%
    20:00 -1°C° 0 mm 3 m/s 744 mmHg 61%
    21:00 -1°C° 0 mm 2 m/s 745 mmHg 62%
    22:00 -1°C° 0 mm 2 m/s 745 mmHg 62%
    23:00 -2°C° 0 mm 2 m/s 745 mmHg 63%

    28 Março, Quinta-feira

    Tempo Temperatura Precipitação Vento Pressão Humidade
    00:00 -2°C° 0 mm 2 m/s 746 mmHg 62%
    01:00 -2°C° 0 mm 2 m/s 746 mmHg 62%
    02:00 -2°C° 0 mm 2 m/s 746 mmHg 61%
    03:00 -2°C° 0 mm 2 m/s 746 mmHg 61%
    04:00 -2°C° 0 mm 2 m/s 746 mmHg 60%
    05:00 -2°C° 0 mm 2 m/s 747 mmHg 60%
    06:00 -1°C° 0 mm 2 m/s 747 mmHg 56%
    07:00 +2°C° 0 mm 1 m/s 747 mmHg 52%
    08:00 +3°C° 0 mm 1 m/s 747 mmHg 48%
    09:00 +3°C° 0 mm 2 m/s 748 mmHg 44%
    10:00 +4°C° 0 mm 2 m/s 748 mmHg 41%
    11:00 +5°C° 0 mm 2 m/s 748 mmHg 38%
    12:00 +6°C° 0 mm 2 m/s 748 mmHg 37%
    13:00 +6°C° 0 mm 2 m/s 748 mmHg 36%
    14:00 +7°C° 0 mm 2 m/s 748 mmHg 35%
    15:00 +7°C° 0 mm 3 m/s 748 mmHg 37%
    16:00 +5°C° 0 mm 3 m/s 747 mmHg 39%
    17:00 +5°C° 0 mm 3 m/s 747 mmHg 41%
    18:00 +5°C° 0 mm 2 m/s 748 mmHg 46%
    19:00 +4°C° 0 mm 2 m/s 748 mmHg 51%
    20:00 +4°C° 0 mm 1 m/s 748 mmHg 56%
    21:00 +3°C° 0 mm 1 m/s 748 mmHg 57%
    22:00 +3°C° 0 mm 1 m/s 748 mmHg 58%
    23:00 +1°C° 0 mm 0 m/s 748 mmHg 59%

    29 Março, Sexta-feira

    Tempo Temperatura Precipitação Vento Pressão Humidade
    00:00 +1°C° 0 mm 0 m/s 748 mmHg 59%
    01:00 +1°C° 0 mm 0 m/s 749 mmHg 59%
    02:00 +1°C° 0 mm 0 m/s 749 mmHg 59%
    03:00 +2°C° 0 mm 1 m/s 749 mmHg 61%
    04:00 +2°C° 0 mm 1 m/s 749 mmHg 62%
    05:00 +1°C° 0 mm 1 m/s 749 mmHg 64%
    06:00 +2°C° 0 mm 1 m/s 749 mmHg 62%
    07:00 +2°C° 0 mm 2 m/s 749 mmHg 59%
    08:00 +3°C° 0 mm 2 m/s 749 mmHg 57%
    09:00 +5°C° 0 mm 2 m/s 749 mmHg 54%
    10:00 +6°C° 0 mm 2 m/s 749 mmHg 50%
    11:00 +8°C° 0 mm 2 m/s 748 mmHg 46%
    12:00 +8°C° 0 mm 3 m/s 748 mmHg 45%
    13:00 +9°C° 0 mm 3 m/s 748 mmHg 44%
    14:00 +10°C° 0 mm 3 m/s 747 mmHg 43%
    15:00 +10°C° 0 mm 3 m/s 747 mmHg 46%
    16:00 +10°C° 0 mm 3 m/s 746 mmHg 49%
    17:00 +10°C° 0 mm 3 m/s 746 mmHg 51%
    18:00 +8°C° 0 mm 3 m/s 746 mmHg 59%
    19:00 +7°C° 0 mm 3 m/s 746 mmHg 67%
    20:00 +6°C° 0 mm 2 m/s 746 mmHg 74%
    21:00 +5°C° 0 mm 2 m/s 746 mmHg 75%
    22:00 +5°C° 0 mm 2 m/s 746 mmHg 77%
    23:00 +4°C° 0 mm 2 m/s 745 mmHg 78%

    30 Março, Sábado

    Tempo Temperatura Precipitação Vento Pressão Humidade
    00:00 +4°C° 0 mm 2 m/s 745 mmHg 80%
    01:00 +4°C° 0 mm 2 m/s 745 mmHg 81%
    02:00 +3°C° 0 mm 2 m/s 745 mmHg 83%
    03:00 +3°C° 0 mm 2 m/s 745 mmHg 84%
    04:00 +3°C° 0 mm 2 m/s 745 mmHg 86%
    05:00 +3°C° 0 mm 2 m/s 745 mmHg 88%
    06:00 +4°C° 0 mm 2 m/s 744 mmHg 84%
    07:00 +5°C° 0 mm 2 m/s 744 mmHg 80%
    08:00 +6°C° 0 mm 2 m/s 744 mmHg 76%
    09:00 +7°C° 0 mm 2 m/s 744 mmHg 70%
    10:00 +9°C° 0 mm 2 m/s 744 mmHg 64%
    11:00 +10°C° 0 mm 3 m/s 744 mmHg 58%
    12:00 +11°C° 0 mm 3 m/s 743 mmHg 54%
    13:00 +13°C° 0 mm 2 m/s 743 mmHg 50%
    14:00 +14°C° 0 mm 2 m/s 742 mmHg 46%
    15:00 +14°C° 0 mm 2 m/s 742 mmHg 46%
    16:00 +14°C° 0 mm 2 m/s 741 mmHg 46%
    17:00 +14°C° 0 mm 2 m/s 741 mmHg 46%
    18:00 +13°C° 0 mm 2 m/s 741 mmHg 51%
    19:00 +11°C° 0 mm 1 m/s 740 mmHg 56%
    20:00 +10°C° 0 mm 1 m/s 740 mmHg 61%
    21:00 +9°C° 0 mm 1 m/s 740 mmHg 63%
    22:00 +9°C° 0 mm 1 m/s 740 mmHg 64%
    23:00 +8°C° 0 mm 1 m/s 740 mmHg 66%
    Mostrar mais